Regional Weather Roundup
Issued by NWS

Home | Current Version | Previous Version | Graphics & Text | Print | Product List | Glossary On
Versions: 1 2 3 4 5 6 7 8 9 10 11 12 13 14 15 16 17 18 19 20 21 22 23 24 25 26 27 28 29 30 31 32 33 34 35 36 37 38 39 40 41 42 43 44 45 46 47 48 49 50
962
ASUS44 KJAN 260810
RWRMS

MISSISSIPPI HOURLY WEATHER ROUNDUP
NATIONAL WEATHER SERVICE JACKSON MS
200 AM CST MON JAN 26 2015

NOTE: "FAIR: INDICATES FEW OR NO CLOUDS BELOW 12,000 FEET WITH NO
SIGNIFICANT WEATHER AND/OR OBSTRUCTIONS TO VISIBILITY.

MSZ001>002-007>008-010>013-018>021-025>028-034>036-260900-
NORTHWEST MISSISSIPPI

CITY           SKY/WX    TMP DP  RH WIND       PRES   REMARKS
CLARKSDALE     CLOUDY    43  36  75 NW17G25   30.03R
CLEVELAND      CLOUDY    45  38  77 NW16      30.02R
GREENWOOD      CLOUDY    46  35  65 NW14G22   30.01R
GREENVILLE     CLOUDY    47  35  63 NW13      30.03R
GRENADA        CLOUDY    45  36  70 NW14      29.99R
OLIVE BRANCH   CLOUDY    39  37  93 NW13      29.98R WCI  32
OXFORD         CLOUDY    41  34  75 NW13G22   29.98R
TUNICA         CLOUDY    41  34  75 NW15      30.02R
$$

MSZ003>006-009-014>017-022>024-029>033-037>039-260900-
NORTHEAST MISSISSIPPI

CITY           SKY/WX    TMP DP  RH WIND       PRES   REMARKS
COLUMBUS AFB   CLOUDY    44  35  70 NW14      29.93R
CORINTH        CLOUDY    41  37  87 NW21G31   29.90R
GOLDN TRIANGLE CLOUDY    45  36  70 NW12G21   29.93R
STARKVILLE     CLOUDY    45  36  70 NW7       29.94S
TUPELO         CLOUDY    43  36  76 N9G21     29.93R
$$

MSZ040-058-260900-
CENTRAL MISSISSIPPI

CITY           SKY/WX    TMP DP  RH WIND       PRES   REMARKS
JACKSON INTL   CLEAR     46  33  60 NW8       30.00R
JACKSON HAWKNS CLEAR     45  33  63 NW9       30.01R
MERIDIAN KEY   CLOUDY    48  33  56 NW16G25   29.95R
MERIDIAN NAS   CLOUDY    47  32  56 NW24G39   29.95R
RAYMOND        FAIR      46  41  81 MISG      30.02R
VICKSBURG      CLEAR     47  33  58 NW8       30.05R
$$

MSZ059>079-260900-
SOUTH MISSISSIPPI

CITY           SKY/WX    TMP DP  RH WIND       PRES   REMARKS
BROOKHAVEN     FAIR      48  34  57 NW9G16    30.03R
HATTIESBURG    CLEAR     51  34  52 NW9       29.98R
MCCOMB         CLEAR     50  33  52 NW12      30.02R
NATCHEZ        CLEAR     48  32  53 NW9       30.06R
PINE BELT      CLEAR     48  32  53 NW13G22   29.99R
$$

MSZ080>082-260900-
COASTAL MISSISSIPPI

CITY           SKY/WX    TMP DP  RH WIND       PRES   REMARKS
BILOXI         CLEAR     49  39  68 VRB1      29.98R
PASCAGOULA     CLEAR     46  39  76 W3        29.97R
GULFPORT       CLEAR     48  38  68 W6        29.98R
$$



USA.gov is the U.S. government's official web portal to all federal, state and local government web resources and services.